Location: Unspecified
(38.4577°N, 0.0000°E)
Time: 02:37:21
(UTC+00:00)

FREGAT DEB - Visible Passes

Search period start: 04 April 2026 00:00
Search period end: 14 April 2026 00:00
Orbit: 616 x 799 km, 98.1° (Epoch: 29 March)

Date Brightness Start Highest point End Pass type
(mag) Time Alt. Az. Time Alt. Az. Time Alt. Az.
4 Apr ? 04:24:53 10° NNE 04:30:12 84° ESE 04:35:22 10° SSW visible
5 Apr ? 03:32:09 10° NE 03:36:28 25° E 03:40:40 10° SSE visible
5 Apr ? 05:09:31 10° N 05:14:21 37° WNW 05:19:03 10° SW visible
6 Apr ? 04:15:43 10° NNE 04:20:59 68° E 04:26:05 10° S visible
7 Apr ? 03:23:18 10° NE 03:27:10 21° E 03:30:56 10° SE visible
7 Apr ? 05:00:11 10° N 05:05:11 45° WNW 05:10:02 10° SW visible
8 Apr ? 04:06:35 10° NNE 04:11:44 55° E 04:16:43 10° S visible
9 Apr ? 03:14:34 10° NE 03:17:50 17° E 03:21:01 10° SE visible
9 Apr ? 04:50:53 10° N 04:56:01 55° WNW 05:00:56 10° SSW visible
10 Apr ? 03:57:28 10° NNE 04:02:29 45° E 04:07:16 10° S visible
11 Apr ? 03:06:05 10° ENE 03:08:28 13° E 03:10:49 10° ESE visible
11 Apr ? 04:41:36 10° N 04:46:48 67° WNW 04:51:46 10° SSW visible
12 Apr ? 03:48:25 10° NNE 03:53:11 36° E 03:57:45 10° SSE visible
13 Apr ? 02:58:35 10° E 02:59:05 10° E 02:59:35 10° E visible
13 Apr ? 04:32:21 10° N 04:37:35 82° WNW 04:42:33 10° SSW visible
